479P/Elenin (2024)

Japanese version
Home page
Updated on June 4, 2024

---------------------------------------------------------------------

* Profile

Designation 479P/2023 WM26
Recovery Date November 18, 2023
Magnitude 21.7 mag
Recoverer Pan-STARRS 2 telescope (Haleakala)

* Pictures

* Orbital Elements

Epoch 2024 Mar. 31.0 TT = JDT 2460400.5
T 2024 May 5.24416 TT                                   Rudenko
q   1.2437039            (2000.0)            P               Q
n   0.07392505     Peri.  263.52500     -0.91135894     +0.33512920
a   5.6226574      Node   295.83399     -0.18492902     -0.85207896
e   0.7788050      Incl.   15.39784     -0.36773108     -0.40205703
P  13.3
>From 661 observations 2011 June 12-2024 Mar. 18, mean residual 0".5.

* Finding Charts

* Magnitudes Graph

        m1 = 16.0 + 5 log d + 10.0 log r  [    ,-115]  (             - 2024 Jan. 11)
        m1 =  9.5 + 5 log d + 25   log r  [-115,    ]  (2024 Jan. 11 -             )

---------------------------------------------------------------------

The orbital elements are published on M.P.E.C. 2024-F34.
The charts are made with StellaNavigator Ver.11 (AstroArts).
The magnitudes graphs are made with Comet for Windows.

---------------------------------------------------------------------

Copyright(C) Seiichi Yoshida (comet@aerith.net). All rights reserved.